Regional Weather Roundup
Issued by NWS

Home | Current Version | Previous Version | Text Only | Print | Product List | Glossary On
Versions: 1 2 3 4 5 6 7 8 9 10 11 12 13 14 15 16 17 18 19 20 21 22 23 24 25 26 27 28 29 30 31 32 33 34 35 36 37 38 39 40 41 42 43 44 45 46 47 48 49 50
470
ASUS44 KJAN 232203
RWRMS

MISSISSIPPI HOURLY WEATHER ROUNDUP
NATIONAL WEATHER SERVICE JACKSON MS
500 PM CDT SAT JUL 23 2016

NOTE: "FAIR: INDICATES FEW OR NO CLOUDS BELOW 12,000 FEET WITH NO
SIGNIFICANT WEATHER AND/OR OBSTRUCTIONS TO VISIBILITY.

MSZ001>002-007>008-010>013-018>021-025>028-034>036-232300-
NORTHWEST MISSISSIPPI

CITY           SKY/WX    TMP DP  RH WIND       PRES   REMARKS
CLEVELAND      FAIR      86  77  74 SE9       29.93F HX  97
GREENWOOD      CLOUDY    81  74  79 SW5       29.95R
GREENVILLE     CLOUDY    84  73  69 SE9       29.93F HX  90
OXFORD         FAIR      84  72  65 SW3       29.96F
WINONA         FAIR      82  76  82 CALM      29.96R
$$

MSZ003>006-009-014>017-022>024-029>033-037>039-232300-
NORTHEAST MISSISSIPPI

CITY           SKY/WX    TMP DP  RH WIND       PRES   REMARKS
ABERDEEN       FAIR      88  70  55 SE3       29.96S HX  92
COLUMBUS AFB   MOSUNNY   86  79  78 NW3       29.95R HX  99
GOLDN TRIANGLE SUNNY     90  73  58 CALM      29.95R HX  98
TUPELO         MOSUNNY   82  74  76 S3        29.95R
$$

MSZ040-058-232300-
CENTRAL MISSISSIPPI

CITY           SKY/WX    TMP DP  RH WIND       PRES   REMARKS
JACKSON INTL   TSTM      75  72  90 NW12G22   29.99R VSB 1/2
JACKSON HAWKNS CLOUDY    83  73  72 E18G28    29.99R
MADISON        MOCLDY    79  73  83 SE3       29.99R THUNDER
MERIDIAN KEY   CLOUDY    88  72  58 NE12      29.94S HX  94
MERIDIAN NAS   CLOUDY    86  68  54 N5        29.96S
VICKSBURG VKS  PTCLDY    97  73  46 W7        29.91F HX 107
$$

MSZ059>079-232300-
SOUTH MISSISSIPPI

CITY           SKY/WX    TMP DP  RH WIND       PRES   REMARKS
BROOKHAVEN     FAIR     N/A N/A N/A S3        29.94F
COLUMBIA       FAIR      93  73  52 VRB7      29.97S HX 102
HATTIESBURG    MOSUNNY   93  74  53 SE6       29.94F HX 103
MCCOMB         SUNNY     90  73  57 SW6       29.94F HX  98
NATCHEZ        PTSUNNY   91  75  59 S14       29.93S HX 102
PINE BELT      SUNNY     91  73  55 S7        29.97S HX 100
$$

MSZ080>082-232300-
COASTAL MISSISSIPPI

CITY           SKY/WX    TMP DP  RH WIND       PRES   REMARKS
BAY ST LOUIS   MOSUNNY   90  72  55 S9        29.96S HX  96
BILOXI         MOSUNNY   89  77  68 S7        29.95F HX 102
PASCAGOULA     SUNNY     88  77  69 VRB5      29.95F HX 100
GULFPORT       MOSUNNY   89  76  65 VRB6      29.94F HX 100
$$

LAZ007>009-015>016-023>026-232300-
NORTHEAST LOUISIANA

CITY           SKY/WX    TMP DP  RH WIND       PRES   REMARKS
BASTROP        CLOUDY    91  80  70 CALM      29.92S HX 108
TALLULAH/VBURG MOSUNNY   96  75  50 SE6       29.91S HX 108
VIDALIA        FAIR      88  77  70 SE13G21   29.94S HX 101
$$




USA.gov is the U.S. government's official web portal to all federal, state and local government web resources and services.